Tracking 19242 objects as of 16-Aug-2018
HD Live streaming from Space Station
objects crossing your sky now

FENGYUN 1C DEB

Track FENGYUN 1C DEB now!
10-day predictions


NORAD ID: 29885
Int'l Code: 1999-025GF
Perigee: 773.1 km
Apogee: 946.2 km
Inclination: 98.4 °
Period: 102.0 minutes
Semi major axis: 7230 km
RCS: 0.04 m2 (small)
Launch date: May 10, 1999
Source: People's Republic of China (PRC)
Launch site: Taiyaun Space Center, China (TSC)

Note: This is SATELLITE DEBRIS
aabbcc
Your satellite tracking list
Your tracking list is empty




NASA's NSSDC Master Catalog

Two Line Element Set (TLE):
1 29885U 99025GF  18227.50826894  .00000029  00000-0  35830-4 0  9993
2 29885  98.3717 322.9734 0119716 312.0724 168.4754 14.12009849596905
Source of the keplerian elements: AFSPC